Regional Weather Roundup
Issued by NWS

Home | Current Version | Previous Version | Text Only | Print | Product List | Glossary Off
Versions: 1 2 3 4 5 6 7 8 9 10 11 12 13 14 15 16 17 18 19 20 21 22 23 24 25 26 27 28 29 30 31 32 33 34 35 36 37 38 39 40 41 42 43 44 45 46 47 48 49 50

000
ASUS43 KMPX 020010
RWRMN
WEATHER ROUNDUP FOR MINNESOTA
NATIONAL WEATHER SERVICE TWIN CITIES/CHANHASSEN MN
700 PM CDT WED APR 01 2015


NOTE: "FAIR" INDICATES FEW OR NO CLOUDS BELOW 12,000 FEET WITH NO
SIGNIFICANT WEATHER AND/OR OBSTRUCTIONS TO VISIBILITY. N/A MEANS
CURRENT SKY AND/OR WEATHER CONDITIONS ARE NOT AVAILABLE.

MNZ060>063-068>070-020100-
   Twin Cities Metro

CITY           SKY/WX    TMP DP  RH WIND       PRES   REMARKS
TWIN CITIES    MOCLDY    77  38  24 S15       29.45S
6HR MIN TEMP:  74; 6HR MAX TEMP:  84;

ST PAUL        MOCLDY    76  36  23 S17G25    29.46S
CRYSTAL        MOCLDY    79  38  22 S17G31    29.41F
BLAINE         MOCLDY    81  37  21 S23G33    29.43F
LAKEVILLE      MOCLDY    73  41  31 S21       29.45F
EDEN PRAIRIE   MOCLDY    77  39  25 S20G26    29.43F
6HR MIN TEMP:  76; 6HR MAX TEMP:  83;

SOUTH ST PAUL  MOCLDY    76  38  25 S12G28    29.46F
LAKE ELMO      FAIR      73  39  29 S21G30    29.47F
$$
MNZ001>005-007-008-013>017-022>024-027-028-020100-
   Northwest Minnesota

CITY           SKY/WX    TMP DP  RH WIND       PRES   REMARKS
BEMIDJI        MOCLDY    62  40  44 W22G29    29.40R
HALLOCK        CLOUDY    55  43  62 W9        29.43R
ROSEAU         MOCLDY    55  45  67 W10G17    29.37R
WARROAD        MOCLDY    57  45  62 W16G24    29.35R
THIEF RVR FALL PTCLDY    55  39  54 NW17G26   29.45R
CROOKSTON      MOCLDY    61  45  55 NW24      29.47R
FOSSTON        PTCLDY    57  41  54 W23G29    29.45R
DETROIT LAKES  MOCLDY    61  41  48 NW22G30   29.51R
MOORHEAD       PTCLDY    63  39  42 NW16      29.52R
PARK RAPIDS    MOCLDY    64  36  35 W21       29.42R
MAHNOMEN       FAIR      59  43  54 W23       29.47R
$$
MNZ006-009>011-018-025>026-020100-
   North Central Minnesota

CITY           SKY/WX    TMP DP  RH WIND       PRES   REMARKS
BAUDETTE       CLOUDY    61  43  51 SW5       29.33R
FLAG ISLAND    MOCLDY    57  36  44 CALM      29.32R
INTL FALLS     CLOUDY    59  36  42 S7        29.35F
6HR MIN TEMP:  56; 6HR MAX TEMP:  65;

WASKISH        CLOUDY    63  39  42 SW15      29.35R
BIG FORK       CLOUDY    63  39  42 SW10      29.36F
LONGVILLE      CLOUDY    64  36  34 SW9G23    29.39S
GRAND RAPIDS   CLOUDY    63  37  39 CALM      29.38F
CRANE LAKE     MOCLDY    54  34  47 SE3       29.43S
ORR            CLOUDY    55  32  41 SE6       29.37F
COOK           CLOUDY    55  37  50 S6        29.40F
WALKER         FAIR      65  36  34 W9G24     29.39R
$$
MNZ012-019>021-037-020100-
   Northeast Minnesota

CITY           SKY/WX    TMP DP  RH WIND       PRES   REMARKS
DULUTH         MOCLDY    39  32  76 SE12      29.45F
6HR MIN TEMP:  39; 6HR MAX TEMP:  46;

ELY            CLOUDY    46  30  53 SE6       29.44F
EVELETH        CLOUDY    52  34  50 S5        29.41F
DULUTH HARBOR  MOCLDY    36  34  93 E9        29.50F
TWO HARBORS    MOCLDY    45  36  70 CALM      29.45F
SILVER BAY     MOCLDY    41  32  70 NE5       29.46F
GRAND MARAIS     N/A     40  31  70 E12G20    29.53F
G MARAIS ARPRT CLOUDY    37  28  70 E7G17     29.51F
$$
MNZ029>031-032-039>041-046>048-054>057-064-020100-
   West Central Minnesota

CITY           SKY/WX    TMP DP  RH WIND       PRES   REMARKS
FERGUS FALLS   MOCLDY    64  37  36 NW30      29.52R
WHEATON        MOCLDY    61  39  44 W18       29.56R
MORRIS         CLOUDY    64  43  45 NW16      29.50S
ALEXANDRIA     CLOUDY    60  39  45 W15       29.50R
ELBOW LAKE     FAIR      62  42  48 NW16      29.52R
WADENA         CLOUDY    63  39  42 W22G29    29.45R
GLENWOOD       CLOUDY    61  43  51 W17G25    29.49S
APPLETON       CLOUDY    64  41  42 NW20      29.50S
BENSON         CLOUDY    63  39  42 N14       29.50R
ORTONVILLE     CLOUDY    64  39  39 NW17G24   29.53R
MADISON        CLOUDY    66  39  37 NW12      29.52S
WILLMAR        FAIR      66  37  34 NW17G24   29.48S
$$
MNZ033>034-036-042>043-049>051-058-059-020100-
   Central Minnesota

CITY           SKY/WX    TMP DP  RH WIND       PRES   REMARKS
ST CLOUD       MOCLDY    66  53  63 SW7       29.43R
6HR MIN TEMP:  63; 6HR MAX TEMP:  76; 6HR PCP:  0.09;

SAUK CENTRE    FAIR      62  40  45 W14       29.46S
PAYNESVILLE    CLOUDY    63  37  39 W15G26    29.47R
AITKIN         CLOUDY    72  43  35 SW12G18   29.38S
PINE RIVER     CLOUDY    66  39  37 W6G18     29.44S
BRAINERD       CLOUDY    66  40  38 W14G20    29.41R
STAPLES        CLOUDY    64  36  34 W18       29.43S
LONG PRAIRIE   FAIR      61  37  41 W13       29.46R
LITTLE FALLS   MOCLDY    68  36  30 W17G26    29.43R
LITCHFIELD     CLOUDY    66  50  55 CALM      29.47R
BUFFALO        CLOUDY    64  50  59 SW15G38   29.48R
MAPLE LAKE     TSTM      63  55  76 SW5       29.45S
$$
MNZ037-044-045-052-053-020100-
   East Central Minnesota

CITY           SKY/WX    TMP DP  RH WIND       PRES   REMARKS
PRINCETON      LGT RAIN  64  54  68 SW10G20   29.45R
MORA           CLOUDY    59  52  77 S13       29.47F
CAMBRIDGE      TSTM      63  52  67 W10G24    29.47R
RUSH CITY      TSTM      62  50  65 NW5G16    29.49R
MOOSE LAKE     CLOUDY    66  45  45 S16G24    29.41F
HINCKLEY       LGT RAIN  59  54  82 S12       29.46R
CLOQUET        MOCLDY    39  32  75 E8        29.45F
MCGREGOR       CLOUDY    68  43  40 W3        29.39S
$$
MNZ071>073-080-081-089-090-097-098-020100-
   Southwest Minnesota

CITY           SKY/WX    TMP DP  RH WIND       PRES   REMARKS
MONTEVIDEO     CLOUDY    64  41  42 N20G26    29.48F
GRANITE FALLS  CLOUDY    68  39  35 NW22G31   29.51R THUNDER
CANBY          CLOUDY    65  40  39 NW16      29.54S
MARSHALL       CLOUDY    66  37  34 NW24G30   29.49S
REDWOOD FALLS  TSTM      64  43  46 NW12G28   29.48R
OLIVIA         TSTM      57  45  62 NW21G32   29.47R
PIPESTONE      MOCLDY    66  36  32 NW22G30   29.52R
WINDOM         CLOUDY    79  39  24 W18       29.49R
WORTHINGTON    CLOUDY    72  37  28 W8        29.52R
JACKSON        MOCLDY    77  39  25 S20G25    29.51S
TRACY          CLOUDY    69  40  34 NW6       29.51R
SLAYTON        LGT RAIN  61  44  54 CALM      29.53R
$$
MNZ065>067-074>077-082>085-091>093-020100-
   South Central Minnesota

CITY           SKY/WX    TMP DP  RH WIND       PRES   REMARKS
MANKATO        CLOUDY    79  43  27 S24G32    29.48F
NEW ULM        CLOUDY    79  41  25 S23G30    29.42F
FAIRMONT       MOCLDY    77  45  31 S25G33    29.49F
GLENCOE        LGT RAIN  76  47  35 S12G18    29.41F
FARIBAULT      CLOUDY    75  39  27 S18G25    29.51F
OWATONNA       CLOUDY    75  36  23 S17G23    29.53F
WASECA         CLOUDY    75  41  29 S20       29.52F
ALBERT LEA     MOCLDY    75  36  23 S15G26    29.55F
$$
MNZ078>079-086>088-094>096-020100-
   Southeast Minnesota

CITY           SKY/WX    TMP DP  RH WIND       PRES   REMARKS
ROCHESTER      MOCLDY    70  41  34 S21       29.59F
6HR MIN TEMP:  69; 6HR MAX TEMP:  76;

RED WING       MOCLDY    75  34  22 S16G30    29.49F
STANTON        MOCLDY    73  40  30 S18G24    29.48F
DODGE CENTER   MOCLDY    70  45  40 S16       29.57F
WINONA         MOCLDY    73  34  23 S12G22    29.60S
AUSTIN         MOCLDY    72  37  28 S24G30    29.58F
PRESTON        PTCLDY    70  37  29 S18G26    29.62F
$$
ABBREVIATIONS USED IN REMARKS
   TC - TEMPERATURES IN CELSIUS
  WCI - WIND CHILL INDEX
   HX - HEAT INDEX
  VSB - VISIBILITY
$$



USA.gov is the U.S. government's official web portal to all federal, state and local government web resources and services.